FW7253 Weather Reports


Display with metric or nautical units.
time (UTC)temp
F
wind
direction
speed
MPH
gust
MPH
rain 1hr
in
rain 24hr
in
rain mn
in
humidity
%
barometer
mb
20260506212534 42 345 2.0 6.0 0.00 0.00 0.00 45 1013.7
20260506212037 42 356 2.0 9.0 0.00 0.00 0.00 44 1013.7
20260506211539 42 42 3.0 9.0 0.00 0.00 0.00 44 1013.7
20260506211034 42 13 6.0 9.0 0.00 0.00 0.00 43 1013.6
20260506210534 43 29 3.0 9.0 0.00 0.00 0.00 42 1013.5
20260506210038 43 18 5.0 10.0 0.00 0.00 0.00 42 1013.6
20260506205537 43 331 5.0 11.0 0.00 0.00 0.00 41 1013.5
20260506205037 43 329 6.0 12.0 0.00 0.00 0.00 41 1013.6
20260506204550 43 356 5.0 12.0 0.00 0.00 0.00 42 1013.6
20260506204033 42 19 2.0 8.0 0.00 0.00 0.00 43 1013.5
20260506203534 43 0 1.0 7.0 0.00 0.00 0.00 44 1013.5
20260506203045 43 8 2.0 8.0 0.00 0.00 0.00 42 1013.5
20260506202535 43 344 3.0 8.0 0.00 0.00 0.00 41 1013.5
20260506202033 44 354 5.0 8.0 0.00 0.00 0.00 41 1013.4
20260506201545 44 360 3.0 6.0 0.00 0.00 0.00 42 1013.3
20260506201034 44 332 2.0 6.0 0.00 0.00 0.00 44 1013.4
20260506200533 44 53 3.0 8.0 0.00 0.00 0.00 42 1013.5
20260506200040 44 329 3.0 8.0 0.00 0.00 0.00 42 1013.4
20260506195533 44 16 3.0 7.0 0.00 0.00 0.00 43 1013.3
20260506195037 44 347 1.0 4.0 0.00 0.00 0.00 46 1013.2
20260506194541 44 60 1.0 4.0 0.00 0.00 0.00 46 1013.2
20260506194033 44 4 0.0 3.0 0.00 0.00 0.00 48 1013.2
20260506193534 45 0 0.0 3.0 0.00 0.00 0.00 49 1013.1
20260506193055 45 298 1.0 3.0 0.00 0.00 0.00 48 1013.1
20260506192534 45 0 0.0 0.0 0.00 0.00 0.00 48 1013.1
20260506192036 46 0 0.0 2.0 0.00 0.00 0.00 48 1013.0
20260506191548 46 0 0.0 2.0 0.00 0.00 0.00 47 1013.0
20260506191034 46 304 0.0 1.0 0.00 0.00 0.00 46 1012.8
20260506190534 47 302 0.0 1.0 0.00 0.00 0.00 46 1012.9
20260506190045 48 0 0.0 2.0 0.00 0.00 0.00 46 1012.9
20260506185533 48 0 0.0 3.0 0.00 0.00 0.00 45 1012.8
20260506185034 48 182 1.0 4.0 0.00 0.00 0.00 43 1012.7
20260506184543 48 217 1.0 4.0 0.00 0.00 0.00 44 1012.7
20260506184034 48 217 3.0 4.0 0.00 0.00 0.00 43 1012.7
20260506183534 48 212 2.0 5.0 0.00 0.00 0.00 42 1012.7
20260506183039 49 226 3.0 5.0 0.00 0.00 0.00 42 1012.7
20260506182533 49 231 3.0 5.0 0.00 0.00 0.00 42 1012.6
20260506182033 49 240 3.0 6.0 0.00 0.00 0.00 39 1012.5
20260506181545 49 183 4.0 6.0 0.00 0.00 0.00 37 1012.6
20260506181036 50 207 4.0 9.0 0.00 0.00 0.00 38 1012.6
20260506180536 50 237 5.0 9.0 0.00 0.00 0.00 37 1012.6
20260506180059 50 218 6.0 9.0 0.00 0.00 0.00 37 1012.7
20260506175533 50 210 3.0 8.0 0.00 0.00 0.00 38 1012.5
20260506175033 50 165 3.0 9.0 0.00 0.00 0.00 37 1012.4
20260506174545 50 222 2.0 9.0 0.00 0.00 0.00 37 1012.3
20260506174033 50 233 6.0 9.0 0.00 0.00 0.00 36 1012.4
20260506173533 51 159 3.0 9.0 0.00 0.00 0.00 38 1012.4
20260506173044 51 170 3.0 9.0 0.00 0.00 0.00 36 1012.4
20260506172533 51 233 5.0 9.0 0.00 0.00 0.00 36 1012.3
20260506172033 51 165 5.0 11.0 0.00 0.00 0.00 36 1012.2
20260506171549 51 172 7.0 11.0 0.00 0.00 0.00 37 1012.3
20260506171034 51 196 6.0 10.0 0.00 0.00 0.00 38 1012.3
20260506170532 51 95 5.0 9.0 0.00 0.00 0.00 38 1012.2
20260506170055 51 185 5.0 8.0 0.00 0.00 0.00 38 1012.3
20260506165533 51 219 3.0 7.0 0.00 0.00 0.00 38 1012.4
20260506165033 51 212 4.0 10.0 0.00 0.00 0.00 38 1012.6
20260506164547 50 161 3.0 10.0 0.00 0.00 0.00 39 1012.4
20260506164033 51 129 4.0 10.0 0.00 0.00 0.00 37 1012.6
20260506163537 51 259 3.0 13.0 0.00 0.00 0.00 38 1012.4
20260506163057 51 215 6.0 13.0 0.00 0.00 0.00 38 1012.4
20260506162535 51 188 6.0 12.0 0.00 0.00 0.00 36 1012.5
20260506162037 52 198 7.0 11.0 0.00 0.00 0.00 38 1012.3
20260506161546 51 229 5.0 8.0 0.00 0.00 0.00 38 1012.3
20260506161035 51 174 4.0 9.0 0.00 0.00 0.00 39 1012.3
20260506160533 51 164 3.0 9.0 0.00 0.00 0.00 38 1012.3
20260506160047 51 199 5.0 10.0 0.00 0.00 0.00 39 1012.2
20260506155533 50 105 3.0 10.0 0.00 0.00 0.00 40 1012.2
20260506155033 50 216 3.0 9.0 0.00 0.00 0.00 41 1012.2
20260506154604 50 198 1.0 8.0 0.00 0.00 0.00 39 1012.2
20260506154033 50 203 4.0 8.0 0.00 0.00 0.00 40 1012.2
20260506153533 50 199 5.0 8.0 0.00 0.00 0.00 41 1012.2
20260506153049 51 185 2.0 7.0 0.00 0.00 0.00 38 1012.3
20260506152533 51 120 2.0 5.0 0.00 0.00 0.00 40 1012.4
20260506152034 50 115 2.0 6.0 0.00 0.00 0.00 38 1012.4
20260506151539 51 146 3.0 9.0 0.00 0.00 0.00 40 1012.4
20260506151033 50 131 2.0 12.0 0.00 0.00 0.00 41 1012.3
20260506150535 50 113 6.0 12.0 0.00 0.00 0.00 40 1012.4
20260506150047 50 86 6.0 12.0 0.00 0.00 0.00 40 1012.5
20260506145534 51 129 4.0 12.0 0.00 0.00 0.00 41 1012.5
20260506145033 50 136 3.0 12.0 0.00 0.00 0.00 40 1012.3
20260506144546 50 100 6.0 13.0 0.00 0.00 0.00 40 1012.4
20260506144033 50 67 5.0 13.0 0.00 0.00 0.00 41 1012.4
20260506143537 50 124 3.0 11.0 0.00 0.00 0.00 41 1012.5
20260506143059 50 145 6.0 11.0 0.00 0.00 0.00 40 1012.5
20260506142536 51 184 5.0 11.0 0.00 0.00 0.00 42 1012.5
20260506142034 50 96 4.0 10.0 0.00 0.00 0.00 41 1012.5
20260506141543 50 103 3.0 11.0 0.00 0.00 0.00 41 1012.5
20260506141034 51 97 4.0 11.0 0.00 0.00 0.00 41 1012.4
20260506140535 51 111 5.0 11.0 0.00 0.00 0.00 40 1012.6
20260506140049 51 104 5.0 10.0 0.00 0.00 0.00 39 1012.4
20260506135533 52 77 5.0 10.0 0.00 0.00 0.00 42 1012.5
20260506135033 52 147 3.0 8.0 0.00 0.00 0.00 41 1012.5
20260506134545 51 110 3.0 8.0 0.00 0.00 0.00 39 1012.6
20260506134034 50 48 2.0 12.0 0.00 0.00 0.00 38 1012.7
20260506133534 51 110 3.0 12.0 0.00 0.00 0.00 37 1012.5
20260506133040 52 83 6.0 12.0 0.00 0.00 0.00 35 1012.3
20260506132533 53 114 2.0 12.0 0.00 0.00 0.00 41 1012.4
20260506132033 51 92 3.0 12.0 0.00 0.00 0.00 37 1012.4
20260506131546 53 129 5.0 9.0 0.00 0.00 0.00 33 1012.5
20260506131033 53 124 4.0 9.0 0.00 0.00 0.00 36 1012.5
20260506130533 52 99 4.0 9.0 0.00 0.00 0.00 34 1012.5
20260506130044 53 107 3.0 6.0 0.00 0.00 0.00 31 1012.6
20260506125537 53 180 3.0 6.0 0.00 0.00 0.00 32 1012.5
20260506125037 52 201 2.0 7.0 0.00 0.00 0.00 32 1012.6
20260506124541 52 153 4.0 7.0 0.00 0.00 0.00 30 1012.7
20260506124033 52 330 2.0 7.0 0.00 0.00 0.00 33 1012.6
20260506123533 52 219 2.0 7.0 0.00 0.00 0.00 31 1012.7
20260506123040 53 65 1.0 8.0 0.00 0.00 0.00 35 1012.7
20260506122532 53 148 2.0 8.0 0.00 0.00 0.00 32 1012.8
20260506122032 53 116 4.0 8.0 0.00 0.00 0.00 34 1012.8
20260506121543 53 172 2.0 6.0 0.00 0.00 0.00 33 1012.9
20260506121033 52 60 2.0 6.0 0.00 0.00 0.00 31 1012.9
20260506120534 52 207 3.0 6.0 0.00 0.00 0.00 33 1012.8
20260506120038 52 231 2.0 5.0 0.00 0.00 0.00 32 1012.8
20260506115535 51 289 3.0 7.0 0.00 0.00 0.00 33 1012.9
20260506115032 52 328 4.0 7.0 0.00 0.00 0.00 33 1013.0
20260506114547 52 237 3.0 11.0 0.00 0.00 0.00 30 1013.0
20260506114033 52 206 4.0 11.0 0.00 0.00 0.00 33 1012.9
20260506113535 51 243 8.0 11.0 0.00 0.00 0.00 32 1013.0
20260506113039 52 234 3.0 9.0 0.00 0.00 0.00 32 1013.0
20260506112533 53 193 5.0 12.0 0.00 0.00 0.00 33 1013.0
20260506112032 51 124 6.0 12.0 0.00 0.00 0.00 33 1013.1
20260506111541 51 209 3.0 8.0 0.00 0.00 0.00 31 1013.1
20260506111034 51 216 3.0 6.0 0.00 0.00 0.00 31 1013.1
20260506110534 51 42 3.0 9.0 0.00 0.00 0.00 33 1013.1
20260506110038 51 153 4.0 12.0 0.00 0.00 0.00 35 1013.2
20260506105531 50 92 3.0 12.0 0.00 0.00 0.00 34 1013.2
20260506105033 51 198 7.0 12.0 0.00 0.00 0.00 32 1013.1
20260506104545 51 231 3.0 7.0 0.00 0.00 0.00 34 1013.2
20260506104033 50 345 1.0 7.0 0.00 0.00 0.00 34 1013.3
20260506103533 50 345 2.0 7.0 0.00 0.00 0.00 35 1013.3
20260506103044 49 349 1.0 8.0 0.00 0.00 0.00 33 1013.3
20260506102533 49 330 2.0 8.0 0.00 0.00 0.00 35 1013.3
20260506102034 49 220 2.0 5.0 0.00 0.00 0.00 35 1013.3
20260506101543 49 349 2.0 5.0 0.00 0.00 0.00 34 1013.4
20260506101033 49 128 2.0 5.0 0.00 0.00 0.00 34 1013.4
20260506100533 49 278 3.0 11.0 0.00 0.00 0.00 36 1013.5
20260506100047 49 336 1.0 11.0 0.00 0.00 0.00 39 1013.5
20260506095533 50 325 6.0 11.0 0.00 0.00 0.00 35 1013.5
20260506095034 49 287 1.0 7.0 0.00 0.00 0.00 35 1013.6
20260506094549 48 321 1.0 7.0 0.00 0.00 0.00 36 1013.5
20260506094034 49 98 3.0 7.0 0.00 0.00 0.00 35 1013.6
20260506093536 49 107 3.0 6.0 0.00 0.00 0.00 37 1013.6
20260506093038 48 217 1.0 8.0 0.00 0.00 0.00 37 1013.5
20260506092533 47 240 2.0 8.0 0.00 0.00 0.00 38 1013.6
20260506092033 47 236 2.0 8.0 0.00 0.00 0.00 37 1013.7
20260506091546 47 345 4.0 8.0 0.00 0.00 0.00 35 1013.6
20260506091035 46 0 1.0 7.0 0.00 0.00 0.00 37 1013.6
20260506090533 47 283 4.0 7.0 0.00 0.00 0.00 39 1013.7
20260506090042 47 338 1.0 6.0 0.00 0.00 0.00 38 1013.7
20260506085533 47 87 2.0 7.0 0.00 0.00 0.00 39 1013.7
20260506085035 47 301 2.0 7.0 0.00 0.00 0.00 39 1013.7
20260506084546 46 39 4.0 7.0 0.00 0.00 0.00 41 1013.7
20260506084033 46 98 4.0 7.0 0.00 0.00 0.00 40 1013.8
20260506083533 46 120 1.0 7.0 0.00 0.00 0.00 41 1013.7
20260506083042 45 156 4.0 7.0 0.00 0.00 0.00 40 1013.7
20260506082532 45 153 2.0 6.0 0.00 0.00 0.00 42 1013.9
20260506082033 45 256 1.0 7.0 0.00 0.00 0.00 40 1013.9
20260506081545 45 309 2.0 7.0 0.00 0.00 0.00 41 1014.0
20260506081034 45 317 4.0 7.0 0.00 0.00 0.00 43 1014.0
20260506080533 45 293 2.0 8.0 0.00 0.00 0.00 42 1014.0
20260506073047 43 344 2.0 7.0 0.00 0.00 0.00 47 1014.0
20260506072533 43 31 4.0 7.0 0.00 0.00 0.00 47 1013.9
20260506072037 42 338 2.0 7.0 0.00 0.00 0.00 46 1013.9
20260506071542 42 20 4.0 9.0 0.00 0.00 0.00 47 1014.0
20260506071033 42 2 4.0 9.0 0.00 0.00 0.00 48 1013.9
20260506070533 42 341 5.0 9.0 0.00 0.00 0.00 48 1013.9
20260506062033 40 342 4.0 8.0 0.00 0.00 0.00 53 1013.9
20260506061545 39 346 5.0 11.0 0.00 0.00 0.00 53 1013.9
20260506061033 39 22 7.0 11.0 0.00 0.00 0.00 54 1014.0
20260506060534 39 328 6.0 9.0 0.00 0.00 0.00 54 1014.0
20260506051032 36 356 5.0 10.0 0.00 0.00 0.00 56 1013.7
20260506050534 36 347 5.0 10.0 0.00 0.00 0.00 56 1013.7
20260506045033 36 349 6.0 11.0 0.00 0.00 0.00 56 1013.6
20260506044551 36 15 6.0 11.0 0.00 0.00 0.00 56 1013.6
20260506044036 35 328 7.0 11.0 0.00 0.00 0.00 56 1013.7
20260506043536 35 338 6.0 9.0 0.00 0.00 0.00 57 1013.7
20260506043044 35 2 5.0 10.0 0.00 0.00 0.00 57 1013.6
20260506042533 35 290 6.0 10.0 0.00 0.00 0.00 57 1013.7
20260506042033 35 313 6.0 11.0 0.00 0.00 0.00 57 1013.7
20260506041541 35 347 7.0 11.0 0.00 0.00 0.00 58 1013.7
20260506041033 34 2 2.0 8.0 0.00 0.00 0.00 59 1013.7
20260506040533 34 0 0.0 9.0 0.00 0.00 0.00 59 1013.6
20260506040056 34 6 5.0 9.0 0.00 0.00 0.00 58 1013.6
20260506035538 34 344 4.0 9.0 0.00 0.00 0.00 58 1013.6
20260506035035 34 15 4.0 9.0 0.00 0.00 0.00 57 1013.6
20260506034538 34 7 6.0 10.0 0.00 0.00 0.00 57 1013.6
20260506034032 34 18 6.0 10.0 0.00 0.00 0.00 57 1013.6
20260506033534 34 9 6.0 10.0 0.00 0.00 0.00 57 1013.6
20260506033039 35 346 6.0 10.0 0.00 0.00 0.00 57 1013.6
20260506032533 35 342 6.0 9.0 0.00 0.00 0.00 57 1013.5
20260506032035 35 338 6.0 9.0 0.00 0.00 0.00 57 1013.5
20260506031556 35 358 6.0 10.0 0.00 0.00 0.00 57 1013.5
20260506031033 34 358 5.0 10.0 0.00 0.00 0.00 57 1013.5
20260506030534 34 357 5.0 10.0 0.00 0.00 0.00 57 1013.5
20260506030041 34 354 4.0 9.0 0.00 0.00 0.00 58 1013.5
20260506025533 34 31 5.0 9.0 0.00 0.00 0.00 57 1013.5
20260506025033 34 354 5.0 8.0 0.00 0.00 0.00 58 1013.5
20260506024540 34 4 3.0 7.0 0.00 0.00 0.00 59 1013.5
20260506024033 34 21 2.0 6.0 0.00 0.00 0.00 59 1013.6
20260506023533 34 349 2.0 6.0 0.00 0.00 0.00 59 1013.5
20260506023038 34 359 3.0 8.0 0.00 0.00 0.00 60 1013.5
20260506022532 34 11 4.0 9.0 0.00 0.00 0.00 58 1013.4
20260506022032 34 344 5.0 9.0 0.00 0.00 0.00 58 1013.6
20260506021551 34 17 4.0 9.0 0.00 0.00 0.00 59 1013.5
20260506021033 34 360 4.0 10.0 0.00 0.00 0.00 58 1013.6
20260506020534 35 16 5.0 10.0 0.00 0.00 0.00 57 1013.5
20260506020045 35 335 6.0 10.0 0.00 0.00 0.00 57 1013.5
20260506015532 35 11 6.0 9.0 0.00 0.00 0.00 57 1013.4
20260506015034 35 359 4.0 9.0 0.00 0.00 0.00 57 1013.5
20260506014545 35 344 5.0 10.0 0.00 0.00 0.00 57 1013.5
20260506014033 35 328 6.0 10.0 0.00 0.00 0.00 56 1013.4
20260506013532 36 357 6.0 10.0 0.00 0.00 0.00 56 1013.4
20260506013046 36 332 6.0 10.0 0.00 0.00 0.00 56 1013.4
20260506012533 35 360 6.0 9.0 0.00 0.00 0.00 56 1013.4
20260506012035 35 360 4.0 9.0 0.00 0.00 0.00 57 1013.4
20260506011540 35 13 3.0 10.0 0.00 0.00 0.00 57 1013.2
20260506011035 35 353 4.0 10.0 0.00 0.00 0.00 57 1013.3
20260506010533 35 322 1.0 4.0 0.00 0.00 0.00 57 1013.3
20260506010043 35 56 0.0 8.0 0.00 0.00 0.00 57 1013.3
20260506005533 35 0 1.0 8.0 0.00 0.00 0.00 57 1013.2
20260506005032 35 328 2.0 6.0 0.00 0.00 0.00 56 1013.2
20260506004538 35 47 0.0 6.0 0.00 0.00 0.00 56 1013.1
20260506004033 36 2 2.0 8.0 0.00 0.00 0.00 56 1013.1
20260506003534 36 28 4.0 8.0 0.00 0.00 0.00 56 1013.1
20260506003045 35 9 2.0 8.0 0.00 0.00 0.00 57 1013.1
20260506002537 35 345 1.0 6.0 0.00 0.00 0.00 57 1013.2
20260506002034 35 359 2.0 6.0 0.00 0.00 0.00 58 1013.1
20260506001544 35 342 0.0 7.0 0.00 0.00 0.00 57 1013.2
20260506001035 36 340 2.0 7.0 0.00 0.00 0.00 57 1013.1
20260506000535 36 8 4.0 9.0 0.00 0.00 0.00 57 1013.1
20260506000044 36 347 5.0 9.0 0.00 0.00 0.00 57 1013.1
20260505235535 36 356 6.0 9.0 0.00 0.00 0.00 56 1013.2
20260505235035 36 346 1.0 7.0 0.00 0.00 0.00 56 1013.3
20260505234557 37 347 4.0 9.0 0.00 0.00 0.00 56 1013.1
20260505234034 37 345 4.0 9.0 0.00 0.00 0.00 56 1013.1
20260505233535 37 32 5.0 7.0 0.00 0.00 0.00 56 1013.1
20260505233042 37 4 4.0 10.0 0.00 0.00 0.00 55 1013.2
20260505232535 37 35 5.0 10.0 0.00 0.00 0.00 55 1013.0
20260505232035 37 355 4.0 10.0 0.00 0.00 0.00 55 1013.1
20260505231546 37 321 5.0 10.0 0.00 0.00 0.00 57 1013.1
20260505231037 36 5 4.0 7.0 0.00 0.00 0.00 58 1013.1
20260505230534 36 338 4.0 7.0 0.00 0.00 0.00 59 1013.0
20260505230038 36 2 2.0 6.0 0.00 0.00 0.00 59 1013.1
20260505225535 36 51 1.0 5.0 0.00 0.00 0.00 58 1013.0
20260505225036 37 349 1.0 6.0 0.00 0.00 0.00 56 1013.1
20260505224546 38 345 4.0 8.0 0.00 0.00 0.00 55 1013.1
20260505224035 38 26 4.0 8.0 0.00 0.00 0.00 54 1013.0
20260505223535 38 345 5.0 8.0 0.00 0.00 0.00 54 1013.1
20260505223051 37 338 3.0 6.0 0.00 0.00 0.00 55 1013.1
20260505222535 38 0 0.0 5.0 0.00 0.00 0.00 56 1013.2
20260505222036 38 0 1.0 6.0 0.00 0.00 0.00 54 1013.0
20260505221549 38 345 3.0 6.0 0.00 0.00 0.00 53 1013.0
20260505221034 38 329 4.0 6.0 0.00 0.00 0.00 53 1013.1
20260505220539 37 4 3.0 5.0 0.00 0.00 0.00 55 1013.1
20260505220048 37 345 0.0 3.0 0.00 0.00 0.00 55 1013.2
20260505215535 38 0 1.0 3.0 0.00 0.00 0.00 54 1013.2
20260505215034 38 14 0.0 4.0 0.00 0.00 0.00 54 1013.1
20260505214550 38 0 0.0 4.0 0.00 0.00 0.00 53 1013.0
20260505214035 39 51 1.0 4.0 0.00 0.00 0.00 53 1013.0
20260505213535 39 44 1.0 4.0 0.00 0.00 0.00 52 1013.0
20260505213044 39 0 0.0 4.0 0.00 0.00 0.00 52 1013.0